User: anonymous   Login
Location: Newark
(34.0111°N, 88.4892°W)
Time: 09:08:35
(UTC+00:00)
Language:

STARS - Orbit

View from above orbital plane
View from above orbital plane
View from above satellite
View from above satellite

Ground track
Ground track

The orbit data is extracted from the following two-line orbital elements,

1 33498U 09002G   20157.69328448 +.00000176 +00000-0 +31218-4 0  9990
2 33498 098.2654 022.5177 0012129 113.3105 246.9383 14.79141483611764
Epoch (UTC): 05 June 2020 16:38:19
Eccentricity: 0.0012129
inclination: 98.2654°
perigee height: 623 km
apogee height: 640 km
right ascension of ascending node: 22.5177°
argument of perigee: 113.3105°
revolutions per day: 14.79141483
mean anomaly at epoch: 246.9383°
orbit number at epoch: 61176

The dashed part of the orbit path shows where the satellite is in the earth's shadow,  

DLR